Flag for Poland Weather past 2 weeks in Gdańsk, Poland

Now
30 °F

Passing clouds.


Feels Like: 23 °F
Forecast: 31 / 34 °F
Wind: 8 mph from South

Location: Gdansk-Rebiechowo

Current Time: Jan 26, 2015 at 10:04:19 PM

Latest Report: Jan 26, 2015 at 9:30 PM


Visibility: N/A

Pressure: 29.89 "Hg

Humidity: 80%

Dew point: 25 °F

Location of GdańskLocation

Historic Weather in Gdańsk — Graph

°F

Gdańsk temperature yesterday

Maximum temperature yesterday: 32 °F (at 4:00 PM)
Minimum temperature yesterday: 27 °F (at 4:30 AM)
Average temperature yesterday: 29 °F

Past Weeks' High & Low Weather Summary

 TemperatureHumidityPressure
High48 °F (Jan 13, 8:30 PM)100% (Jan 12, 12:30 AM)30.24 "Hg (Jan 12, 12:30 AM)
Low21 °F (Jan 24, 5:00 AM)62% (Jan 16, 12:30 PM)29.33 "Hg (Jan 11, 9:00 PM)
Average34 °F90%29.91 "Hg
* Reported Jan 11 9:00 PM — Jan 26 9:00 PM, Gdańsk, Weather by CustomWeather, © 2014

Note: Actual official high and low records may vary slightly from our data, if they occured in-between our weather recording intervals... More about our weather records

Advertising

Gdańsk weather history for previous 24 hours

 ConditionsComfort  
Time TempWeatherWind HumidityBarometerVisibility
9:00 PM
Jan 26
32 °FPassing clouds.7 mph75%29.92 "HgN/A
8:30 PM30 °FPassing clouds.7 mph80%29.92 "HgN/A
8:00 PM30 °FPassing clouds.7 mph80%29.95 "HgN/A
7:30 PM32 °FPassing clouds.7 mph75%29.95 "HgN/A
7:00 PM32 °FPassing clouds.9 mph69%29.98 "HgN/A
6:30 PM34 °FPassing clouds.8 mph70%29.98 "HgN/A
6:00 PM32 °FPassing clouds.9 mph75%30.01 "HgN/A
5:30 PM32 °FPassing clouds.12 mph69%30.01 "HgN/A
5:00 PM32 °FPassing clouds.9 mph75%30.01 "HgN/A
4:30 PM32 °FPassing clouds.8 mph75%30.04 "HgN/A
4:00 PM32 °FPartly sunny.7 mph75%30.04 "HgN/A
3:30 PM32 °FPartly sunny.9 mph75%30.04 "HgN/A
3:00 PM32 °FPartly sunny.7 mph75%30.07 "HgN/A
2:30 PM32 °FPartly sunny.9 mph75%30.07 "HgN/A
2:00 PM32 °FPartly sunny.9 mph75%30.07 "HgN/A
1:30 PM34 °FPartly sunny.8 mph70%30.09 "HgN/A
1:00 PM34 °FPartly sunny.8 mph65%30.09 "HgN/A
12:30 PM32 °FPartly sunny.10 mph69%30.12 "HgN/A
12:00 PM34 °FPartly sunny.8 mph70%30.12 "HgN/A
11:30 AM34 °FPartly sunny.7 mph70%30.15 "HgN/A
11:00 AM34 °FPartly sunny.5 mph81%30.15 "HgN/A
10:30 AM32 °FPartly sunny.5 mph87%30.15 "HgN/A
10:00 AM32 °FPartly sunny.5 mph87%30.15 "HgN/A
9:30 AM32 °FPartly sunny.2 mph87%30.18 "HgN/A
9:00 AM32 °FPartly sunny.3 mph87%30.18 "HgN/A
8:30 AM32 °FPartly sunny.5 mph80%30.18 "HgN/A
8:00 AM32 °FPartly sunny.3 mph87%30.18 "HgN/A
7:30 AM32 °FPassing clouds.5 mph87%30.18 "HgN/A
7:00 AM32 °FPassing clouds.3 mph87%30.18 "HgN/A
6:30 AM32 °FPassing clouds.2 mph87%30.18 "HgN/A
6:00 AM32 °FPassing clouds.2 mph80%30.18 "HgN/A
5:30 AM32 °FPassing clouds.2 mph80%30.15 "HgN/A
5:00 AM32 °FPassing clouds.6 mph80%30.18 "HgN/A
4:30 AM32 °FPassing clouds.3 mph87%30.18 "HgN/A
4:00 AM32 °FPassing clouds.3 mph87%30.18 "HgN/A
3:30 AM32 °FPassing clouds.5 mph87%30.18 "HgN/A
3:00 AM32 °FPassing clouds.5 mph93%30.18 "HgN/A
2:30 AM32 °FPassing clouds.5 mph100%30.18 "Hg5 mi
2:00 AM32 °FPassing clouds.2 mph100%30.18 "Hg4 mi
1:30 AM32 °FPassing clouds.3 mph100%30.18 "Hg4 mi
1:00 AM32 °FIce fog.2 mph100%30.18 "Hg3 mi
12:30 AM32 °FIce fog.3 mph100%30.18 "Hg2 mi
12:00 AM32 °FIce fog.3 mph100%30.21 "Hg2 mi
11:30 PM
Jan 25
32 °FIce fog.3 mph100%30.21 "Hg2 mi
11:00 PM32 °FIce fog.3 mph100%30.18 "Hg2 mi
10:30 PM30 °FIce fog.2 mph100%30.18 "Hg3 mi
10:00 PM30 °FIce fog.3 mph100%30.18 "Hg1 mi
Weather by CustomWeather, © 2014

See weather overviewHow to use our weather pages